This demonstration page uses our WeatherBlox Daily Observations layout. Learn more.

Left ArrowRight Arrow

44.8408, -93.29828

Hourly Observations for December 9, 2022

Temp ( °F °C ) Dew Point ( °F °C ) Humidity (%) Winds ( mph kmh ) Pressure ( in mb ) Visibility ( mi km ) Precip ( " mm )
12:39 am 00:39 Cloudy with Mist and Fog 28 -2.2 24 -4.4 85 85 ENE 7 11 30.28 1026 5 8 0.00 0.00
12:53 am 00:53 Cloudy with Mist and Fog 28 -2.2 24 -4.4 85 85 ENE 8 13 30.26 1025 5 8 0.00 0.00
1:53 am 01:53 Cloudy with Mist and Fog 28 -2.2 24 -4.4 85 85 ENE 8 13 30.24 1024 5 8 0.00 0.00
2:53 am 02:53 Cloudy 28 -2.2 24 -4.4 85 85 ENE 8 13 30.24 1024 7 11 0.00 0.00
3:53 am 03:53 Cloudy 28 -2.2 23 -5 81 81 NE 7 11 30.24 1024 8 13 0.00 0.00
4:53 am 04:53 Mostly Cloudy 27 -2.8 22 -5.6 81 81 ENE 6 9 30.23 1024 9 14 0.00 0.00
5:53 am 05:53 Cloudy 27 -2.8 22 -5.6 81 81 ENE 9 15 30.23 1024 10 16 0.00 0.00
6:53 am 06:53 Cloudy 27 -2.8 21 -6.1 78 78 E 9 15 30.22 1024 10 16 0.00 0.00
7:53 am 07:53 Cloudy 27 -2.8 21 -6.1 78 78 E 9 15 30.24 1024 10 16 0.00 0.00
8:15 am 08:15 Cloudy 28 -2.2 22 -5.6 77 77 E 7 11 30.25 1025 10 16 0.00 0.00
8:44 am 08:44 Mostly Cloudy 28 -2.2 22 -5.6 77 77 E 9 15 30.24 1024 10 16 0.00 0.00
8:53 am 08:53 Mostly Cloudy 28 -2.2 22 -5.6 77 77 E 9 15 30.22 1024 10 16 0.00 0.00
9:10 am 09:10 Mostly Cloudy 28 -2.2 22 -5.6 77 77 E 9 15 30.25 1025 10 16 0.00 0.00
9:22 am 09:22 Mostly Cloudy 28 -2.2 22 -5.6 77 77 E 10 17 30.25 1025 10 16 0.00 0.00
9:32 am 09:32 Mostly Cloudy 28 -2.2 22 -5.6 77 77 E 9 15 30.25 1025 10 16 0.00 0.00
9:53 am 09:53 Mostly Cloudy 29 -1.7 23 -5 78 78 ESE 13 20 30.25 1024 10 16 0.00 0.00
10:53 am 10:53 Cloudy 30 -1.1 23 -5 75 75 ENE 7 11 30.26 1025 10 16 0.00 0.00
11:53 am 11:53 Cloudy 30 -1.1 23 -5 75 75 ENE 7 11 30.27 1025 10 16 0.00 0.00
12:53 pm 12:53 Cloudy 30 -1.1 24 -4.4 78 78 ENE 8 13 30.27 1025 10 16 0.00 0.00
1:53 pm 13:53 Cloudy 31 -0.6 24 -4.4 75 75 ENE 13 20 30.24 1024 10 16 0.00 0.00
2:03 pm 14:03 Cloudy 31 -0.6 24 -4.4 75 75 ENE 9 15 30.26 1025 10 16 0.00 0.00
2:15 pm 14:15 Cloudy 31 -0.6 24 -4.4 75 75 ENE 12 19 30.26 1025 10 16 0.00 0.00
2:53 pm 14:53 Cloudy 30 -1.1 23 -5 75 75 E 13 20 30.24 1024 10 16 0.00 0.00
3:53 pm 15:53 Cloudy 31 -0.6 24 -4.4 75 75 E 10 17 30.23 1024 10 16 0.00 0.00
4:53 pm 16:53 Cloudy 31 -0.6 24 -4.4 75 75 ENE 12 19 30.23 1024 10 16 0.00 0.00
5:38 pm 17:38 Cloudy 31 -0.6 25 -3.9 78 78 E 6 9 30.26 1025 10 16 0.00 0.00
5:53 pm 17:53 Cloudy 31 -0.6 25 -3.9 78 78 E 9 15 30.24 1024 10 16 0.00 0.00
6:53 pm 18:53 Cloudy 32 0 26 -3.3 78 78 E 6 9 30.26 1025 10 16 0.00 0.00
7:53 pm 19:53 Cloudy 33 0.6 26 -3.3 75 75 E 8 13 30.25 1024 10 16 0.00 0.00
8:53 pm 20:53 Cloudy 33 0.6 26 -3.3 75 75 E 13 20 30.23 1024 10 16 0.00 0.00
9:53 pm 21:53 Cloudy with Light Snow 32 0 26 -3.3 78 78 ESE 14 22 30.24 1024 7 11 0.01 0.13
10:53 pm 22:53 Cloudy with Light Snow 31 -0.6 27 -2.8 85 85 ESE 14 22 30.23 1024 7 11 0.01 0.13
11:43 pm 23:43 Cloudy with Light Snow 32 0 26 -3.3 78 78 ESE 15 24 30.27 1025 7 11 0.01 0.13
11:53 pm 23:53 Cloudy 31 -0.6 27 -2.8 85 85 ESE 15 24 30.25 1025 10 16 0.01 0.13

Powered by AerisWeather